owner,sensor,date,latitude,longitude,vertical_datum,wind_speed,wind_to_direction,wind_speed_of_gust,qcFlag 
COMPS,ioos:station:USF.COMPS:NFB:1,2016-01-01T04:00:00Z,25.0840,-81.0960,6.0,6.57,120.5,7.35,'1111122,1111122,1111122' 
COMPS,ioos:station:USF.COMPS:NFB:1,2016-01-01T04:06:00Z,25.0840,-81.0960,6.0,6.44,123.93,7.74,'1111122,1111122,1111122' 
COMPS,ioos:station:USF.COMPS:NFB:1,2016-01-01T04:12:00Z,25.0840,-81.0960,6.0,6.87,125.98,8.13,'1111122,1111122,1111122' 
COMPS,ioos:station:USF.COMPS:NFB:1,2016-01-01T04:18:00Z,25.0840,-81.0960,6.0,6.91,126.69,8.03,'1111122,1111122,1111122' 
COMPS,ioos:station:USF.COMPS:NFB:1,2016-01-01T04:24:00Z,25.0840,-81.0960,6.0,6.95,126.54,7.93,'1111122,1111122,1111122' 
COMPS,ioos:station:USF.COMPS:NFB:1,2016-01-01T04:30:00Z,25.0840,-81.0960,6.0,7.19,125.84,8.03,'1111122,1111122,1111122' 
COMPS,ioos:station:USF.COMPS:NFB:1,2016-01-01T04:36:00Z,25.0840,-81.0960,6.0,6.75,128.12,7.54,'1111122,1111122,1111122' 
COMPS,ioos:station:USF.COMPS:NFB:1,2016-01-01T04:42:00Z,25.0840,-81.0960,6.0,6.72,127.44,8.03,'1111122,1111122,1111122' 
COMPS,ioos:station:USF.COMPS:NFB:1,2016-01-01T04:48:00Z,25.0840,-81.0960,6.0,6.28,127.09,7.35,'1111122,1111122,1111122' 
COMPS,ioos:station:USF.COMPS:NFB:1,2016-01-01T04:54:00Z,25.0840,-81.0960,6.0,6.71,126.28,7.54,'1111122,1111122,1111122' 
COMPS,ioos:station:USF.COMPS:NFB:1,2016-01-01T05:00:00Z,25.0840,-81.0960,6.0,5.87,125.06,7.05,'1111122,1111122,1111122' 
COMPS,ioos:station:USF.COMPS:NFB:1,2016-01-01T05:06:00Z,25.0840,-81.0960,6.0,5.87,127.47,6.95,'1111122,1111122,1111122' 
COMPS,ioos:station:USF.COMPS:NFB:1,2016-01-01T05:12:00Z,25.0840,-81.0960,6.0,5.81,130.21,6.76,'1111122,1111122,1111122' 
COMPS,ioos:station:USF.COMPS:NFB:1,2016-01-01T05:18:00Z,25.0840,-81.0960,6.0,5.64,122.79,6.27,'1111122,1111122,1111122' 
COMPS,ioos:station:USF.COMPS:NFB:1,2016-01-01T05:24:00Z,25.0840,-81.0960,6.0,5.83,123.97,6.56,'1111122,1111122,1111122' 
COMPS,ioos:station:USF.COMPS:NFB:1,2016-01-01T05:30:00Z,25.0840,-81.0960,6.0,5.64,129.79,6.76,'1111122,1111122,1111122' 
COMPS,ioos:station:USF.COMPS:NFB:1,2016-01-01T05:36:00Z,25.0840,-81.0960,6.0,6.02,124.46,6.85,'1111122,1111122,1111122' 
COMPS,ioos:station:USF.COMPS:NFB:1,2016-01-01T05:42:00Z,25.0840,-81.0960,6.0,6.02,126.86,7.25,'1111122,1111122,1111122' 
COMPS,ioos:station:USF.COMPS:NFB:1,2016-01-01T05:48:00Z,25.0840,-81.0960,6.0,6.05,127.02,7.15,'1111122,1111122,1111122' 
COMPS,ioos:station:USF.COMPS:NFB:1,2016-01-01T05:54:00Z,25.0840,-81.0960,6.0,5.97,127.78,7.25,'1111122,1111122,1111122' 
COMPS,ioos:station:USF.COMPS:NFB:1,2016-01-01T06:00:00Z,25.0840,-81.0960,6.0,6.04,127.19,6.95,'1111122,1111122,1111122' 
COMPS,ioos:station:USF.COMPS:NFB:1,2016-01-01T06:06:00Z,25.0840,-81.0960,6.0,5.93,127.09,6.66,'1111122,1111122,1111122' 
COMPS,ioos:station:USF.COMPS:NFB:1,2016-01-01T06:12:00Z,25.0840,-81.0960,6.0,5.76,127.27,6.95,'1111122,1111122,1111122' 
COMPS,ioos:station:USF.COMPS:NFB:1,2016-01-01T06:18:00Z,25.0840,-81.0960,6.0,5.51,134.41,6.46,'1111122,1111122,1111122' 
COMPS,ioos:station:USF.COMPS:NFB:1,2016-01-01T06:24:00Z,25.0840,-81.0960,6.0,5.11,131.11,6.46,'1111122,1111122,1111122' 
COMPS,ioos:station:USF.COMPS:NFB:1,2016-01-01T06:30:00Z,25.0840,-81.0960,6.0,5.64,130.91,6.66,'1111122,1111122,1111122' 
COMPS,ioos:station:USF.COMPS:NFB:1,2016-01-01T06:36:00Z,25.0840,-81.0960,6.0,5.47,133.45,6.66,'1111122,1111122,1111122' 
COMPS,ioos:station:USF.COMPS:NFB:1,2016-01-01T06:42:00Z,25.0840,-81.0960,6.0,5.02,135.81,5.97,'1111122,1111122,1111122' 
COMPS,ioos:station:USF.COMPS:NFB:1,2016-01-01T06:48:00Z,25.0840,-81.0960,6.0,4.5,130.73,5.39,'1111122,1111122,1111122' 
COMPS,ioos:station:USF.COMPS:NFB:1,2016-01-01T06:54:00Z,25.0840,-81.0960,6.0,4.26,133.1,5.09,'1111122,1111122,1111122' 
COMPS,ioos:station:USF.COMPS:NFB:1,2016-01-01T07:00:00Z,25.0840,-81.0960,6.0,4.63,132.78,5.58,'1111122,1111122,1111122' 
COMPS,ioos:station:USF.COMPS:NFB:1,2016-01-01T07:06:00Z,25.0840,-81.0960,6.0,4.41,134.39,5.48,'1111122,1111122,1111122' 
COMPS,ioos:station:USF.COMPS:NFB:1,2016-01-01T07:12:00Z,25.0840,-81.0960,6.0,4.24,138.31,5.39,'1111122,1111122,1111122' 
COMPS,ioos:station:USF.COMPS:NFB:1,2016-01-01T07:18:00Z,25.0840,-81.0960,6.0,4.3,130.64,5.29,'1111122,1111122,1111122' 
COMPS,ioos:station:USF.COMPS:NFB:1,2016-01-01T07:24:00Z,25.0840,-81.0960,6.0,4.66,127.92,5.58,'1111122,1111122,1111122' 
COMPS,ioos:station:USF.COMPS:NFB:1,2016-01-01T07:30:00Z,25.0840,-81.0960,6.0,4.77,140.58,5.39,'1111122,1111122,1111122' 
COMPS,ioos:station:USF.COMPS:NFB:1,2016-01-01T07:36:00Z,25.0840,-81.0960,6.0,4.78,145.02,5.58,'1111122,1111122,1111122' 
COMPS,ioos:station:USF.COMPS:NFB:1,2016-01-01T07:42:00Z,25.0840,-81.0960,6.0,5.49,143.5,6.66,'1111122,1111122,1111122' 
COMPS,ioos:station:USF.COMPS:NFB:1,2016-01-01T07:48:00Z,25.0840,-81.0960,6.0,5.39,126.23,6.07,'1111122,1111122,1111122' 
COMPS,ioos:station:USF.COMPS:NFB:1,2016-01-01T07:54:00Z,25.0840,-81.0960,6.0,6.11,133.61,7.83,'1111122,1111122,1111122' 
COMPS,ioos:station:USF.COMPS:NFB:1,2016-01-01T08:00:00Z,25.0840,-81.0960,6.0,5.81,141.61,6.76,'1111122,1111122,1111122' 
COMPS,ioos:station:USF.COMPS:NFB:1,2016-01-01T08:06:00Z,25.0840,-81.0960,6.0,5.83,141.92,6.56,'1111122,1111122,1111122' 
COMPS,ioos:station:USF.COMPS:NFB:1,2016-01-01T08:12:00Z,25.0840,-81.0960,6.0,5.2,142.13,6.07,'1111122,1111122,1111122' 
COMPS,ioos:station:USF.COMPS:NFB:1,2016-01-01T08:18:00Z,25.0840,-81.0960,6.0,5.08,142.36,6.17,'1111122,1111122,1111122' 
COMPS,ioos:station:USF.COMPS:NFB:1,2016-01-01T08:24:00Z,25.0840,-81.0960,6.0,5.52,142.0,6.27,'1111122,1111122,1111122' 
COMPS,ioos:station:USF.COMPS:NFB:1,2016-01-01T08:30:00Z,25.0840,-81.0960,6.0,5.6,141.4,6.66,'1111122,1111122,1111122' 
COMPS,ioos:station:USF.COMPS:NFB:1,2016-01-01T08:36:00Z,25.0840,-81.0960,6.0,5.05,138.18,5.78,'1111122,1111122,1111122' 
COMPS,ioos:station:USF.COMPS:NFB:1,2016-01-01T08:42:00Z,25.0840,-81.0960,6.0,5.12,139.48,5.97,'1111122,1111122,1111122' 
COMPS,ioos:station:USF.COMPS:NFB:1,2016-01-01T08:48:00Z,25.0840,-81.0960,6.0,4.98,138.73,5.78,'1111122,1111122,1111122' 
COMPS,ioos:station:USF.COMPS:NFB:1,2016-01-01T08:54:00Z,25.0840,-81.0960,6.0,4.86,135.09,5.78,'1111122,1111122,1111122' 
COMPS,ioos:station:USF.COMPS:NFB:1,2016-01-01T09:00:00Z,25.0840,-81.0960,6.0,4.65,129.68,5.87,'1111122,1111122,1111122' 
COMPS,ioos:station:USF.COMPS:NFB:1,2016-01-01T09:06:00Z,25.0840,-81.0960,6.0,4.36,125.29,4.99,'1111122,1111122,1111122' 
COMPS,ioos:station:USF.COMPS:NFB:1,2016-01-01T09:12:00Z,25.0840,-81.0960,6.0,4.17,121.19,4.8,'1111122,1111122,1111122' 
COMPS,ioos:station:USF.COMPS:NFB:1,2016-01-01T09:18:00Z,25.0840,-81.0960,6.0,4.01,118.18,5.09,'1111122,1111122,1111122' 
COMPS,ioos:station:USF.COMPS:NFB:1,2016-01-01T09:24:00Z,25.0840,-81.0960,6.0,3.77,117.42,4.6,'1111122,1111122,1111122' 
COMPS,ioos:station:USF.COMPS:NFB:1,2016-01-01T09:30:00Z,25.0840,-81.0960,6.0,3.54,122.43,4.11,'1111122,1111122,1111122' 
COMPS,ioos:station:USF.COMPS:NFB:1,2016-01-01T09:36:00Z,25.0840,-81.0960,6.0,3.58,119.45,4.6,'1111122,1111122,1111122' 
COMPS,ioos:station:USF.COMPS:NFB:1,2016-01-01T09:42:00Z,25.0840,-81.0960,6.0,3.5,116.63,4.41,'1111122,1111122,1111122' 
COMPS,ioos:station:USF.COMPS:NFB:1,2016-01-01T09:48:00Z,25.0840,-81.0960,6.0,3.6,117.95,4.7,'1111122,1111122,1111122' 
COMPS,ioos:station:USF.COMPS:NFB:1,2016-01-01T09:54:00Z,25.0840,-81.0960,6.0,3.54,112.08,4.7,'1111122,1111122,1111122' 
COMPS,ioos:station:USF.COMPS:NFB:1,2016-01-01T10:00:00Z,25.0840,-81.0960,6.0,3.5,110.73,4.5,'1111122,1111122,1111122' 
COMPS,ioos:station:USF.COMPS:NFB:1,2016-01-01T10:06:00Z,25.0840,-81.0960,6.0,3.77,114.32,4.7,'1111122,1111122,1111122' 
COMPS,ioos:station:USF.COMPS:NFB:1,2016-01-01T10:12:00Z,25.0840,-81.0960,6.0,3.29,110.37,4.31,'1111122,1111122,1111122' 
COMPS,ioos:station:USF.COMPS:NFB:1,2016-01-01T10:18:00Z,25.0840,-81.0960,6.0,3.45,111.56,4.9,'1111122,1111122,1111122' 
COMPS,ioos:station:USF.COMPS:NFB:1,2016-01-01T10:24:00Z,25.0840,-81.0960,6.0,3.47,114.48,4.41,'1111122,1111122,1111122' 
COMPS,ioos:station:USF.COMPS:NFB:1,2016-01-01T10:30:00Z,25.0840,-81.0960,6.0,3.25,109.68,4.11,'1111122,1111122,1111122' 
COMPS,ioos:station:USF.COMPS:NFB:1,2016-01-01T10:36:00Z,25.0840,-81.0960,6.0,3.13,109.19,3.62,'1111122,1111122,1111122' 
COMPS,ioos:station:USF.COMPS:NFB:1,2016-01-01T10:42:00Z,25.0840,-81.0960,6.0,2.92,104.66,3.82,'1111122,1111122,1111122' 
COMPS,ioos:station:USF.COMPS:NFB:1,2016-01-01T10:48:00Z,25.0840,-81.0960,6.0,2.86,103.79,3.82,'1111122,1111122,1111122' 
COMPS,ioos:station:USF.COMPS:NFB:1,2016-01-01T10:54:00Z,25.0840,-81.0960,6.0,3.35,107.74,4.31,'1111122,1111122,1111122' 
COMPS,ioos:station:USF.COMPS:NFB:1,2016-01-01T11:00:00Z,25.0840,-81.0960,6.0,4.36,111.91,5.87,'1111122,1111122,1111122' 
COMPS,ioos:station:USF.COMPS:NFB:1,2016-01-01T11:06:00Z,25.0840,-81.0960,6.0,4.27,117.1,5.39,'1111122,1111122,1111122' 
COMPS,ioos:station:USF.COMPS:NFB:1,2016-01-01T11:12:00Z,25.0840,-81.0960,6.0,3.49,106.44,4.41,'1111122,1111122,1111122' 
COMPS,ioos:station:USF.COMPS:NFB:1,2016-01-01T11:18:00Z,25.0840,-81.0960,6.0,3.75,118.19,4.99,'1111122,1111122,1111122' 
COMPS,ioos:station:USF.COMPS:NFB:1,2016-01-01T11:24:00Z,25.0840,-81.0960,6.0,4.08,120.01,4.99,'1111122,1111122,1111122' 
COMPS,ioos:station:USF.COMPS:NFB:1,2016-01-01T11:30:00Z,25.0840,-81.0960,6.0,4.08,116.17,5.29,'1111122,1111122,1111122' 
COMPS,ioos:station:USF.COMPS:NFB:1,2016-01-01T11:36:00Z,25.0840,-81.0960,6.0,4.51,119.24,5.29,'1111122,1111122,1111122' 
COMPS,ioos:station:USF.COMPS:NFB:1,2016-01-01T11:42:00Z,25.0840,-81.0960,6.0,3.67,112.79,4.9,'1111122,1111122,1111122' 
COMPS,ioos:station:USF.COMPS:NFB:1,2016-01-01T11:48:00Z,25.0840,-81.0960,6.0,4.27,118.18,5.09,'1111122,1111122,1111122' 
COMPS,ioos:station:USF.COMPS:NFB:1,2016-01-01T11:54:00Z,25.0840,-81.0960,6.0,4.07,121.64,4.9,'1111122,1111122,1111122' 
COMPS,ioos:station:USF.COMPS:NFB:1,2016-01-01T12:00:00Z,25.0840,-81.0960,6.0,4.02,117.2,5.29,'1111122,1111122,1111122' 
COMPS,ioos:station:USF.COMPS:NFB:1,2016-01-01T12:06:00Z,25.0840,-81.0960,6.0,4.32,119.03,5.48,'1111122,1111122,1111122' 
COMPS,ioos:station:USF.COMPS:NFB:1,2016-01-01T12:12:00Z,25.0840,-81.0960,6.0,4.43,118.48,5.09,'1111122,1111122,1111122' 
COMPS,ioos:station:USF.COMPS:NFB:1,2016-01-01T12:18:00Z,25.0840,-81.0960,6.0,4.01,116.63,4.99,'1111122,1111122,1111122' 
COMPS,ioos:station:USF.COMPS:NFB:1,2016-01-01T12:24:00Z,25.0840,-81.0960,6.0,4.25,120.84,5.29,'1111122,1111122,1111122' 
COMPS,ioos:station:USF.COMPS:NFB:1,2016-01-01T12:30:00Z,25.0840,-81.0960,6.0,4.87,130.16,5.68,'1111122,1111122,1111122' 
COMPS,ioos:station:USF.COMPS:NFB:1,2016-01-01T12:36:00Z,25.0840,-81.0960,6.0,5.4,138.47,5.97,'1111122,1111122,1111122' 
COMPS,ioos:station:USF.COMPS:NFB:1,2016-01-01T12:42:00Z,25.0840,-81.0960,6.0,5.21,140.44,5.87,'1111122,1111122,1111122' 
COMPS,ioos:station:USF.COMPS:NFB:1,2016-01-01T12:48:00Z,25.0840,-81.0960,6.0,5.14,139.36,6.07,'1111122,1111122,1111122' 
COMPS,ioos:station:USF.COMPS:NFB:1,2016-01-01T12:54:00Z,25.0840,-81.0960,6.0,5.25,139.14,5.87,'1111122,1111122,1111122' 
COMPS,ioos:station:USF.COMPS:NFB:1,2016-01-01T13:00:00Z,25.0840,-81.0960,6.0,5.11,139.28,5.78,'1111122,1111122,1111122' 
COMPS,ioos:station:USF.COMPS:NFB:1,2016-01-01T13:06:00Z,25.0840,-81.0960,6.0,5.09,137.91,5.97,'1111122,1111122,1111122' 
COMPS,ioos:station:USF.COMPS:NFB:1,2016-01-01T13:12:00Z,25.0840,-81.0960,6.0,4.69,138.82,5.29,'1111122,1111122,1111122' 
COMPS,ioos:station:USF.COMPS:NFB:1,2016-01-01T13:18:00Z,25.0840,-81.0960,6.0,4.25,138.51,4.9,'1111122,1111122,1111122' 
COMPS,ioos:station:USF.COMPS:NFB:1,2016-01-01T13:24:00Z,25.0840,-81.0960,6.0,4.22,133.87,5.29,'1111122,1111122,1111122' 
COMPS,ioos:station:USF.COMPS:NFB:1,2016-01-01T13:30:00Z,25.0840,-81.0960,6.0,4.16,129.17,4.99,'1111122,1111122,1111122' 
COMPS,ioos:station:USF.COMPS:NFB:1,2016-01-01T13:36:00Z,25.0840,-81.0960,6.0,4.7,132.88,5.09,'1111122,1111122,1111122' 
COMPS,ioos:station:USF.COMPS:NFB:1,2016-01-01T13:42:00Z,25.0840,-81.0960,6.0,4.8,135.08,5.48,'1111122,1111122,1111122' 
COMPS,ioos:station:USF.COMPS:NFB:1,2016-01-01T13:48:00Z,25.0840,-81.0960,6.0,4.75,134.62,5.48,'1111122,1111122,1111122' 
COMPS,ioos:station:USF.COMPS:NFB:1,2016-01-01T13:54:00Z,25.0840,-81.0960,6.0,4.51,139.57,5.48,'1111122,1111122,1111122' 
COMPS,ioos:station:USF.COMPS:NFB:1,2016-01-01T14:00:00Z,25.0840,-81.0960,6.0,4.18,117.34,5.48,'1111122,1111122,1111122' 
COMPS,ioos:station:USF.COMPS:NFB:1,2016-01-01T14:06:00Z,25.0840,-81.0960,6.0,4.51,116.62,5.48,'1111122,1111122,1111122' 
COMPS,ioos:station:USF.COMPS:NFB:1,2016-01-01T14:12:00Z,25.0840,-81.0960,6.0,4.45,115.52,5.58,'1111122,1111122,1111122' 
COMPS,ioos:station:USF.COMPS:NFB:1,2016-01-01T14:18:00Z,25.0840,-81.0960,6.0,3.96,115.6,5.19,'1111122,1111122,1111122' 
COMPS,ioos:station:USF.COMPS:NFB:1,2016-01-01T14:24:00Z,25.0840,-81.0960,6.0,4.15,116.04,4.9,'1111122,1111122,1111122' 
COMPS,ioos:station:USF.COMPS:NFB:1,2016-01-01T14:30:00Z,25.0840,-81.0960,6.0,4.48,117.31,5.19,'1111122,1111122,1111122' 
COMPS,ioos:station:USF.COMPS:NFB:1,2016-01-01T14:36:00Z,25.0840,-81.0960,6.0,4.09,111.55,4.9,'1111122,1111122,1111122' 
COMPS,ioos:station:USF.COMPS:NFB:1,2016-01-01T14:42:00Z,25.0840,-81.0960,6.0,4.84,135.41,5.78,'1111122,1111122,1111122' 
COMPS,ioos:station:USF.COMPS:NFB:1,2016-01-01T14:48:00Z,25.0840,-81.0960,6.0,4.83,138.84,5.58,'1111122,1111122,1111122' 
COMPS,ioos:station:USF.COMPS:NFB:1,2016-01-01T14:54:00Z,25.0840,-81.0960,6.0,4.5,137.27,5.39,'1111122,1111122,1111122' 
COMPS,ioos:station:USF.COMPS:NFB:1,2016-01-01T15:00:00Z,25.0840,-81.0960,6.0,4.76,140.49,5.39,'1111122,1111122,1111122' 
COMPS,ioos:station:USF.COMPS:NFB:1,2016-01-01T15:06:00Z,25.0840,-81.0960,6.0,4.73,139.02,5.29,'1111122,1111122,1111122' 
COMPS,ioos:station:USF.COMPS:NFB:1,2016-01-01T15:12:00Z,25.0840,-81.0960,6.0,5.15,139.55,5.97,'1111122,1111122,1111122' 
COMPS,ioos:station:USF.COMPS:NFB:1,2016-01-01T15:18:00Z,25.0840,-81.0960,6.0,5.28,138.84,6.07,'1111122,1111122,1111122' 
COMPS,ioos:station:USF.COMPS:NFB:1,2016-01-01T15:24:00Z,25.0840,-81.0960,6.0,5.56,138.62,6.17,'1111122,1111122,1111122' 
COMPS,ioos:station:USF.COMPS:NFB:1,2016-01-01T15:30:00Z,25.0840,-81.0960,6.0,4.88,139.41,5.58,'1111122,1111122,1111122' 
COMPS,ioos:station:USF.COMPS:NFB:1,2016-01-01T15:36:00Z,25.0840,-81.0960,6.0,4.75,140.65,5.78,'1111122,1111122,1111122' 
COMPS,ioos:station:USF.COMPS:NFB:1,2016-01-01T15:42:00Z,25.0840,-81.0960,6.0,4.48,143.29,5.39,'1111122,1111122,1111122' 
COMPS,ioos:station:USF.COMPS:NFB:1,2016-01-01T15:48:00Z,25.0840,-81.0960,6.0,4.57,142.05,5.29,'1111122,1111122,1111122' 
COMPS,ioos:station:USF.COMPS:NFB:1,2016-01-01T15:54:00Z,25.0840,-81.0960,6.0,4.64,141.27,5.39,'1111122,1111122,1111122' 
COMPS,ioos:station:USF.COMPS:NFB:1,2016-01-01T16:00:00Z,25.0840,-81.0960,6.0,4.74,143.72,5.19,'1111122,1111122,1111122' 
COMPS,ioos:station:USF.COMPS:NFB:1,2016-01-01T16:06:00Z,25.0840,-81.0960,6.0,4.63,144.81,5.39,'1111122,1111122,1111122' 
COMPS,ioos:station:USF.COMPS:NFB:1,2016-01-01T16:12:00Z,25.0840,-81.0960,6.0,4.42,149.46,5.09,'1111122,1111122,1111122' 
COMPS,ioos:station:USF.COMPS:NFB:1,2016-01-01T16:18:00Z,25.0840,-81.0960,6.0,4.75,151.75,5.19,'1111122,1111122,1111122' 
COMPS,ioos:station:USF.COMPS:NFB:1,2016-01-01T16:24:00Z,25.0840,-81.0960,6.0,4.03,149.5,4.8,'1111122,1111122,1111122' 
COMPS,ioos:station:USF.COMPS:NFB:1,2016-01-01T16:30:00Z,25.0840,-81.0960,6.0,3.9,137.44,4.5,'1111122,1111122,1111122' 
COMPS,ioos:station:USF.COMPS:NFB:1,2016-01-01T16:36:00Z,25.0840,-81.0960,6.0,3.97,130.77,4.8,'1111122,1111122,1111122' 
COMPS,ioos:station:USF.COMPS:NFB:1,2016-01-01T16:42:00Z,25.0840,-81.0960,6.0,3.93,129.23,4.5,'1111122,1111122,1111122' 
COMPS,ioos:station:USF.COMPS:NFB:1,2016-01-01T16:48:00Z,25.0840,-81.0960,6.0,4.29,130.73,4.99,'1111122,1111122,1111122' 
COMPS,ioos:station:USF.COMPS:NFB:1,2016-01-01T16:54:00Z,25.0840,-81.0960,6.0,4.14,133.27,4.99,'1111122,1111122,1111122' 
COMPS,ioos:station:USF.COMPS:NFB:1,2016-01-01T17:00:00Z,25.0840,-81.0960,6.0,4.46,135.71,5.58,'1111122,1111122,1111122' 
COMPS,ioos:station:USF.COMPS:NFB:1,2016-01-01T17:06:00Z,25.0840,-81.0960,6.0,4.2,136.44,5.48,'1111122,1111122,1111122' 
COMPS,ioos:station:USF.COMPS:NFB:1,2016-01-01T17:12:00Z,25.0840,-81.0960,6.0,4.14,139.35,4.99,'1111122,1111122,1111122' 
COMPS,ioos:station:USF.COMPS:NFB:1,2016-01-01T17:18:00Z,25.0840,-81.0960,6.0,4.09,141.13,4.9,'1111122,1111122,1111122' 
COMPS,ioos:station:USF.COMPS:NFB:1,2016-01-01T17:24:00Z,25.0840,-81.0960,6.0,3.97,136.09,4.6,'1111122,1111122,1111122' 
COMPS,ioos:station:USF.COMPS:NFB:1,2016-01-01T17:30:00Z,25.0840,-81.0960,6.0,3.82,140.71,4.9,'1111122,1111122,1111122' 
COMPS,ioos:station:USF.COMPS:NFB:1,2016-01-01T17:36:00Z,25.0840,-81.0960,6.0,3.41,137.52,4.41,'1111122,1111122,1111122' 
COMPS,ioos:station:USF.COMPS:NFB:1,2016-01-01T17:42:00Z,25.0840,-81.0960,6.0,3.26,135.29,4.31,'1111122,1111122,1111122' 
COMPS,ioos:station:USF.COMPS:NFB:1,2016-01-01T17:48:00Z,25.0840,-81.0960,6.0,3.54,146.8,4.41,'1111122,1111122,1111122' 
COMPS,ioos:station:USF.COMPS:NFB:1,2016-01-01T17:54:00Z,25.0840,-81.0960,6.0,3.48,146.54,4.5,'1111122,1111122,1111122' 
COMPS,ioos:station:USF.COMPS:NFB:1,2016-01-02T04:00:00Z,25.0840,-81.0960,6.0,1.32,139.83,1.66,'1111122,1111122,1111122' 
COMPS,ioos:station:USF.COMPS:NFB:1,2016-01-02T04:06:00Z,25.0840,-81.0960,6.0,1.27,137.19,1.66,'1111122,1111122,1111122' 
COMPS,ioos:station:USF.COMPS:NFB:1,2016-01-02T04:12:00Z,25.0840,-81.0960,6.0,1.17,134.41,1.46,'1111122,1111122,1111122' 
COMPS,ioos:station:USF.COMPS:NFB:1,2016-01-02T04:18:00Z,25.0840,-81.0960,6.0,1.15,140.44,1.46,'1111122,1111122,1111122' 
COMPS,ioos:station:USF.COMPS:NFB:1,2016-01-02T04:24:00Z,25.0840,-81.0960,6.0,0.89,142.29,1.17,'1111122,1111122,1111122' 
COMPS,ioos:station:USF.COMPS:NFB:1,2016-01-02T04:30:00Z,25.0840,-81.0960,6.0,0.79,142.71,1.07,'1111122,1111122,1111122' 
COMPS,ioos:station:USF.COMPS:NFB:1,2016-01-02T04:36:00Z,25.0840,-81.0960,6.0,0.94,90.12,1.37,'1111122,1111122,1111122' 
COMPS,ioos:station:USF.COMPS:NFB:1,2016-01-02T04:42:00Z,25.0840,-81.0960,6.0,0.8,77.77,1.07,'1111122,1111122,1111122' 
COMPS,ioos:station:USF.COMPS:NFB:1,2016-01-02T04:48:00Z,25.0840,-81.0960,6.0,0.84,54.76,1.27,'1111122,1111122,1111122' 
COMPS,ioos:station:USF.COMPS:NFB:1,2016-01-02T04:54:00Z,25.0840,-81.0960,6.0,1.03,37.8,1.27,'1111122,1111122,1111122' 
COMPS,ioos:station:USF.COMPS:NFB:1,2016-01-02T05:00:00Z,25.0840,-81.0960,6.0,1.02,49.87,1.27,'1111122,1111122,1111122' 
COMPS,ioos:station:USF.COMPS:NFB:1,2016-01-02T05:06:00Z,25.0840,-81.0960,6.0,1.24,39.34,1.56,'1111122,1111122,1111122' 
COMPS,ioos:station:USF.COMPS:NFB:1,2016-01-02T05:12:00Z,25.0840,-81.0960,6.0,1.23,41.1,1.46,'1111122,1111122,1111122' 
COMPS,ioos:station:USF.COMPS:NFB:1,2016-01-02T05:18:00Z,25.0840,-81.0960,6.0,1.31,38.91,1.76,'1111122,1111122,1111122' 
COMPS,ioos:station:USF.COMPS:NFB:1,2016-01-02T05:24:00Z,25.0840,-81.0960,6.0,1.39,39.35,1.76,'1111122,1111122,1111122' 
COMPS,ioos:station:USF.COMPS:NFB:1,2016-01-02T05:30:00Z,25.0840,-81.0960,6.0,1.53,37.75,1.86,'1111122,1111122,1111122' 
COMPS,ioos:station:USF.COMPS:NFB:1,2016-01-02T05:36:00Z,25.0840,-81.0960,6.0,1.75,40.28,2.15,'1111122,1111122,1111122' 
COMPS,ioos:station:USF.COMPS:NFB:1,2016-01-02T05:42:00Z,25.0840,-81.0960,6.0,1.67,36.31,1.95,'1111122,1111122,1111122' 
COMPS,ioos:station:USF.COMPS:NFB:1,2016-01-02T05:48:00Z,25.0840,-81.0960,6.0,2.04,37.69,2.35,'1111122,1111122,1111122' 
COMPS,ioos:station:USF.COMPS:NFB:1,2016-01-02T05:54:00Z,25.0840,-81.0960,6.0,2.02,34.73,2.25,'1111122,1111122,1111122' 
COMPS,ioos:station:USF.COMPS:NFB:1,2016-01-02T06:00:00Z,25.0840,-81.0960,6.0,2.42,38.51,2.84,'1111122,1111122,1111122' 
COMPS,ioos:station:USF.COMPS:NFB:1,2016-01-02T06:06:00Z,25.0840,-81.0960,6.0,2.84,42.77,3.03,'1111122,1111122,1111122' 
COMPS,ioos:station:USF.COMPS:NFB:1,2016-01-02T06:12:00Z,25.0840,-81.0960,6.0,2.64,39.02,2.84,'1111122,1111122,1111122' 
COMPS,ioos:station:USF.COMPS:NFB:1,2016-01-02T06:18:00Z,25.0840,-81.0960,6.0,2.41,41.66,2.64,'1111122,1111122,1111122' 
COMPS,ioos:station:USF.COMPS:NFB:1,2016-01-02T06:24:00Z,25.0840,-81.0960,6.0,2.12,40.33,2.35,'1111122,1111122,1111122' 
COMPS,ioos:station:USF.COMPS:NFB:1,2016-01-02T06:30:00Z,25.0840,-81.0960,6.0,2.3,40.74,2.54,'1111122,1111122,1111122' 
COMPS,ioos:station:USF.COMPS:NFB:1,2016-01-02T06:36:00Z,25.0840,-81.0960,6.0,2.54,44.58,2.74,'1111122,1111122,1111122' 
COMPS,ioos:station:USF.COMPS:NFB:1,2016-01-02T06:42:00Z,25.0840,-81.0960,6.0,2.96,46.6,3.33,'1111122,1111122,1111122' 
COMPS,ioos:station:USF.COMPS:NFB:1,2016-01-02T06:48:00Z,25.0840,-81.0960,6.0,2.87,41.25,3.23,'1111122,1111122,1111122' 
COMPS,ioos:station:USF.COMPS:NFB:1,2016-01-02T06:54:00Z,25.0840,-81.0960,6.0,2.79,42.36,3.03,'1111122,1111122,1111122' 
COMPS,ioos:station:USF.COMPS:NFB:1,2016-01-02T07:00:00Z,25.0840,-81.0960,6.0,2.76,50.47,2.93,'1111122,1111122,1111122' 
COMPS,ioos:station:USF.COMPS:NFB:1,2016-01-02T07:06:00Z,25.0840,-81.0960,6.0,2.79,52.46,3.03,'1111122,1111122,1111122' 
COMPS,ioos:station:USF.COMPS:NFB:1,2016-01-02T07:12:00Z,25.0840,-81.0960,6.0,2.8,52.65,3.13,'1111122,1111122,1111122' 
COMPS,ioos:station:USF.COMPS:NFB:1,2016-01-02T07:18:00Z,25.0840,-81.0960,6.0,2.71,39.12,2.93,'1111122,1111122,1111122' 
COMPS,ioos:station:USF.COMPS:NFB:1,2016-01-02T07:24:00Z,25.0840,-81.0960,6.0,2.79,37.6,3.13,'1111122,1111122,1111122' 
COMPS,ioos:station:USF.COMPS:NFB:1,2016-01-02T07:30:00Z,25.0840,-81.0960,6.0,2.88,39.56,3.33,'1111122,1111122,1111122' 
COMPS,ioos:station:USF.COMPS:NFB:1,2016-01-02T07:36:00Z,25.0840,-81.0960,6.0,3.28,41.22,3.72,'1111122,1111122,1111122' 
COMPS,ioos:station:USF.COMPS:NFB:1,2016-01-02T07:42:00Z,25.0840,-81.0960,6.0,3.36,41.21,3.62,'1111122,1111122,1111122' 
COMPS,ioos:station:USF.COMPS:NFB:1,2016-01-02T07:48:00Z,25.0840,-81.0960,6.0,3.28,45.96,3.72,'1111122,1111122,1111122' 
COMPS,ioos:station:USF.COMPS:NFB:1,2016-01-02T07:54:00Z,25.0840,-81.0960,6.0,3.42,57.13,3.72,'1111122,1111122,1111122' 
COMPS,ioos:station:USF.COMPS:NFB:1,2016-01-02T08:00:00Z,25.0840,-81.0960,6.0,3.2,64.51,3.72,'1111122,1111122,1111122' 
COMPS,ioos:station:USF.COMPS:NFB:1,2016-01-02T08:06:00Z,25.0840,-81.0960,6.0,3.23,69.73,3.52,'1111122,1111122,1111122' 
COMPS,ioos:station:USF.COMPS:NFB:1,2016-01-02T08:12:00Z,25.0840,-81.0960,6.0,3.27,67.52,3.82,'1111122,1111122,1111122' 
COMPS,ioos:station:USF.COMPS:NFB:1,2016-01-02T08:18:00Z,25.0840,-81.0960,6.0,3.42,70.58,3.91,'1111122,1111122,1111122' 
COMPS,ioos:station:USF.COMPS:NFB:1,2016-01-02T08:24:00Z,25.0840,-81.0960,6.0,3.4,67.33,3.82,'1111122,1111122,1111122' 
COMPS,ioos:station:USF.COMPS:NFB:1,2016-01-02T08:30:00Z,25.0840,-81.0960,6.0,3.72,65.78,4.31,'1111122,1111122,1111122' 
COMPS,ioos:station:USF.COMPS:NFB:1,2016-01-02T08:36:00Z,25.0840,-81.0960,6.0,3.67,69.54,4.21,'1111122,1111122,1111122' 
COMPS,ioos:station:USF.COMPS:NFB:1,2016-01-02T08:42:00Z,25.0840,-81.0960,6.0,3.44,70.36,3.82,'1111122,1111122,1111122' 
COMPS,ioos:station:USF.COMPS:NFB:1,2016-01-02T08:48:00Z,25.0840,-81.0960,6.0,3.29,64.93,3.72,'1111122,1111122,1111122' 
COMPS,ioos:station:USF.COMPS:NFB:1,2016-01-02T08:54:00Z,25.0840,-81.0960,6.0,3.17,57.76,3.62,'1111122,1111122,1111122' 
COMPS,ioos:station:USF.COMPS:NFB:1,2016-01-02T09:00:00Z,25.0840,-81.0960,6.0,3.36,59.06,3.72,'1111122,1111122,1111122' 
COMPS,ioos:station:USF.COMPS:NFB:1,2016-01-02T09:06:00Z,25.0840,-81.0960,6.0,2.86,69.25,3.33,'1111122,1111122,1111122' 
COMPS,ioos:station:USF.COMPS:NFB:1,2016-01-02T09:12:00Z,25.0840,-81.0960,6.0,2.74,71.0,3.03,'1111122,1111122,1111122' 
COMPS,ioos:station:USF.COMPS:NFB:1,2016-01-02T09:18:00Z,25.0840,-81.0960,6.0,2.88,63.7,3.23,'1111122,1111122,1111122' 
COMPS,ioos:station:USF.COMPS:NFB:1,2016-01-02T09:24:00Z,25.0840,-81.0960,6.0,2.87,59.25,3.23,'1111122,1111122,1111122' 
COMPS,ioos:station:USF.COMPS:NFB:1,2016-01-02T09:30:00Z,25.0840,-81.0960,6.0,2.8,64.56,3.13,'1111122,1111122,1111122' 
COMPS,ioos:station:USF.COMPS:NFB:1,2016-01-02T09:36:00Z,25.0840,-81.0960,6.0,2.73,59.15,3.03,'1111122,1111122,1111122' 
COMPS,ioos:station:USF.COMPS:NFB:1,2016-01-02T09:42:00Z,25.0840,-81.0960,6.0,3.17,63.86,3.91,'1111122,1111122,1111122' 